Date,TemperatureHighF,TemperatureAvgF,TemperatureLowF,DewpointHighF,DewpointAvgF,DewpointLowF,HumidityHigh,HumidityAvg,HumidityLow,PressureMaxIn,PressureMinIn,WindSpeedMaxMPH,WindSpeedAvgMPH,GustSpeedMaxMPH,PrecipitationSumIn
2013-1-1,35.1,23.3,8.5,-99.9,-99.9,-99.9,0,0,100,20.00,19.99,16,4,26,0.00
2013-1-2,33.3,11.6,-2.3,-99.9,-99.9,-99.9,0,0,100,20.00,20.00,9,2,10,0.00
2013-1-3,29.9,6.6,-8.4,-99.9,-99.9,-99.9,0,0,100,20.00,20.00,6,1,10,0.00
2013-1-4,32.2,27.8,18.3,-99.9,-99.9,-99.9,0,0,100,20.00,20.00,16,7,19,0.00
2013-1-5,46.1,31.7,23.1,-99.9,-99.9,-99.9,0,0,100,20.00,20.00,12,3,19,0.00
2013-1-6,42.7,30.7,22.6,-99.9,-99.9,-99.9,0,0,100,20.00,20.00,15,4,16,0.00
2013-1-7,42.1,26.4,17.0,-99.9,-99.9,-99.9,0,0,100,20.00,20.00,8,2,12,0.00
2013-1-8,46.3,30.8,19.9,-99.9,-99.9,-99.9,0,0,100,20.00,20.00,16,3,16,0.00
2013-1-9,43.4,32.3,20.4,-99.9,-99.9,-99.9,0,0,100,20.00,19.99,31,4,31,0.00
2013-1-10,37.5,32.6,26.7,-99.9,-99.9,-99.9,0,0,100,19.99,19.99,14,2,19,0.00
2013-1-11,41.0,32.2,23.8,-99.9,-99.9,-99.9,0,0,100,20.00,20.00,15,2,15,0.00
2013-1-12,54.5,41.9,37.7,-99.9,-99.9,-99.9,0,0,100,20.00,20.00,10,2,10,0.00
2013-1-13,59.4,44.0,35.7,-99.9,-99.9,-99.9,0,0,100,20.00,20.00,13,2,13,0.00
2013-1-14,52.0,42.2,30.7,-99.9,-99.9,-99.9,0,0,100,20.00,20.00,18,4,18,0.00
2013-1-15,36.3,30.4,28.3,-99.9,-99.9,-99.9,0,0,100,20.00,19.99,7,2,9,0.00
2013-1-16,31.3,28.7,26.0,-99.9,-99.9,-99.9,0,0,100,20.00,20.00,7,1,9,0.00
2013-1-17,34.9,27.5,14.6,-99.9,-99.9,-99.9,0,0,100,20.00,20.00,15,4,16,0.00
2013-1-18,29.3,15.9,3.8,-99.9,-99.9,-99.9,0,0,100,20.00,19.99,15,4,15,0.00
2013-1-19,42.9,34.0,20.8,-99.9,-99.9,-99.9,0,0,100,20.00,20.00,18,7,18,0.00
2013-1-20,43.8,34.8,17.8,-99.9,-99.9,-99.9,0,0,100,20.00,20.00,26,10,27,0.00
2013-1-21,23.5,18.5,14.1,-99.9,-99.9,-99.9,0,0,100,20.00,20.00,10,3,23,0.00
2013-1-22,21.9,12.0,5.4,-99.9,-99.9,-99.9,0,0,100,20.00,20.00,14,4,14,0.00
2013-1-23,19.4,4.9,-1.8,-99.9,-99.9,-99.9,0,0,100,20.00,20.00,14,4,14,0.00
2013-1-24,25.0,5.5,-6.5,-99.9,-99.9,-99.9,0,0,100,20.00,20.00,11,3,15,0.00
2013-1-25,18.8,8.1,-1.2,-99.9,-99.9,-99.9,0,0,100,20.00,20.00,7,1,15,0.00
2013-1-26,26.8,11.3,4.3,-99.9,-99.9,-99.9,0,0,100,20.00,20.00,9,1,9,0.00
2013-1-27,33.4,15.9,4.7,-99.9,-99.9,-99.9,0,0,100,20.00,20.00,8,2,8,0.00
2013-1-28,26.9,19.8,12.0,-99.9,-99.9,-99.9,0,0,100,20.00,20.00,5,0,5,0.00
2013-1-29,40.1,31.5,26.5,-99.9,-99.9,-99.9,0,0,100,20.00,20.00,9,1,9,0.00
2013-1-30,60.7,52.5,40.2,-99.9,-99.9,-99.9,0,0,100,20.00,20.00,26,8,26,0.00
2013-1-31,54.6,36.5,23.5,-99.9,-99.9,-99.9,0,0,100,20.00,20.00,29,12,40,0.00
2013-2-1,25.5,20.6,13.9,-99.9,-99.9,-99.9,0,0,100,20.00,20.00,17,7,29,0.00
2013-2-2,25.1,16.4,9.2,-99.9,-99.9,-99.9,0,0,100,20.00,20.00,13,4,17,0.00
2013-2-3,35.4,21.2,11.8,-99.9,-99.9,-99.9,0,0,100,20.00,20.00,8,1,8,0.00
2013-2-4,27.9,18.8,14.6,-99.9,-99.9,-99.9,0,0,100,20.00,20.00,21,5,21,0.00
2013-2-5,35.7,20.2,9.4,-99.9,-99.9,-99.9,0,0,100,20.00,20.00,8,2,18,0.00
2013-2-6,39.3,25.7,15.2,-99.9,-99.9,-99.9,0,0,100,20.00,20.00,22,5,22,0.00
2013-2-7,27.9,16.1,7.6,-99.9,-99.9,-99.9,0,0,100,20.00,20.00,5,1,14,0.00
2013-2-8,30.2,24.5,16.1,-99.9,-99.9,-99.9,0,0,100,20.00,20.00,19,4,21,0.00
2013-2-9,33.7,15.1,6.0,-99.9,-99.9,-99.9,0,0,100,20.00,20.00,10,3,23,0.00
2013-2-10,45.7,18.0,-0.5,-99.9,-99.9,-99.9,0,0,100,20.00,20.00,6,1,10,0.00
2013-2-11,51.5,34.9,15.3,-99.9,-99.9,-99.9,0,0,100,20.00,20.00,22,5,27,0.00
2013-2-12,34.5,32.9,29.4,-99.9,-99.9,-99.9,0,0,100,20.00,20.00,16,7,16,0.00
2013-2-13,40.4,30.6,27.3,-99.9,-99.9,-99.9,0,0,100,20.00,20.00,8,3,11,0.00
2013-2-14,45.1,32.1,21.9,-99.9,-99.9,-99.9,0,0,100,20.00,20.00,9,2,9,0.00
2013-2-15,43.7,37.2,29.8,-99.9,-99.9,-99.9,0,0,100,20.00,20.00,16,5,18,0.00
2013-2-16,40.2,27.3,19.5,-99.9,-99.9,-99.9,0,0,100,20.00,20.00,8,2,8,0.00
2013-2-17,25.8,15.8,8.5,-99.9,-99.9,-99.9,0,0,100,20.00,20.00,14,4,19,0.00
2013-2-18,38.3,16.9,4.7,-99.9,-99.9,-99.9,0,0,100,20.00,20.00,14,4,19,0.00
2013-2-19,45.4,29.6,16.3,-99.9,-99.9,-99.9,0,0,100,20.00,20.00,25,4,25,0.00
2013-2-20,31.4,25.0,21.0,-99.9,-99.9,-99.9,0,0,100,19.99,19.99,16,7,19,0.00
2013-2-21,32.8,20.6,15.3,-99.9,-99.9,-99.9,0,0,100,20.00,20.00,13,4,19,0.00
2013-2-22,42.4,27.8,18.3,-99.9,-99.9,-99.9,0,0,100,20.00,20.00,5,1,6,0.00
2013-2-23,36.7,33.6,31.9,-99.9,-99.9,-99.9,0,0,100,20.00,20.00,16,4,18,0.00
2013-2-24,35.2,32.3,30.2,-99.9,-99.9,-99.9,0,0,100,20.00,20.00,4,0,5,0.00
2013-2-25,41.5,31.8,27.9,-99.9,-99.9,-99.9,0,0,100,20.00,20.00,4,0,4,0.00
2013-2-26,45.2,34.7,27.7,-99.9,-99.9,-99.9,0,0,100,20.00,20.00,12,3,12,0.00
2013-2-27,43.2,37.0,32.2,-99.9,-99.9,-99.9,0,0,100,20.00,20.00,50,12,59,0.00
2013-2-28,46.6,36.6,32.7,-99.9,-99.9,-99.9,0,0,100,20.00,20.00,6,1,44,0.00
2013-3-1,37.3,32.5,29.5,-99.9,-99.9,-99.9,0,0,100,20.00,19.99,5,1,6,0.00
2013-3-2,32.7,29.0,24.5,-99.9,-99.9,-99.9,0,0,100,20.00,20.00,6,1,6,0.00
2013-3-3,31.1,25.8,20.7,-99.9,-99.9,-99.9,0,0,100,20.00,20.00,6,1,6,0.00
2013-3-4,33.4,26.9,22.0,-99.9,-99.9,-99.9,0,0,100,20.00,19.99,11,3,11,0.00
2013-3-5,46.7,32.2,25.0,-99.9,-99.9,-99.9,0,0,100,20.00,20.00,5,1,5,0.00
2013-3-6,39.8,33.2,24.7,-99.9,-99.9,-99.9,0,0,100,20.00,20.00,13,3,15,0.00
2013-3-7,36.9,31.3,26.9,-99.9,-99.9,-99.9,0,0,100,20.00,20.00,9,2,15,0.00
2013-3-8,48.8,30.5,26.4,-99.9,-99.9,-99.9,0,0,100,20.00,19.99,13,2,13,0.00
2013-3-9,57.6,37.1,24.1,-99.9,-99.9,-99.9,0,0,100,20.00,20.00,7,1,7,0.00
2013-3-10,60.6,41.7,25.0,-99.9,-99.9,-99.9,0,0,100,0.00,40.00,11,3,12,0.00
2013-3-11,52.1,45.5,37.6,-99.9,-99.9,-99.9,0,0,100,20.00,20.00,21,5,21,0.00
2013-3-12,52.8,48.1,36.4,-99.9,-99.9,-99.9,0,0,100,20.00,20.00,30,9,30,0.00
2013-3-13,47.2,36.7,31.4,-99.9,-99.9,-99.9,0,0,100,20.00,20.00,15,4,19,0.00
2013-3-14,31.1,23.7,20.1,-99.9,-99.9,-99.9,0,0,100,20.00,20.00,19,7,19,0.00
2013-3-15,35.2,24.5,15.4,-99.9,-99.9,-99.9,0,0,100,20.00,20.00,14,5,14,0.00
2013-3-16,40.8,26.3,18.0,-99.9,-99.9,-99.9,0,0,100,20.00,20.00,8,2,14,0.00
2013-3-17,38.7,25.3,14.9,-99.9,-99.9,-99.9,0,0,100,20.00,20.00,14,3,14,0.00
2013-3-18,39.5,25.5,11.5,-99.9,-99.9,-99.9,0,0,100,20.00,20.00,15,2,15,0.00
2013-3-19,35.4,31.3,26.6,-99.9,-99.9,-99.9,0,0,100,20.00,20.00,31,4,31,0.00
2013-3-20,35.3,25.3,20.5,-99.9,-99.9,-99.9,0,0,100,20.00,20.00,17,6,18,0.00
2013-3-21,42.9,27.9,19.6,-99.9,-99.9,-99.9,0,0,100,20.00,20.00,10,3,18,0.00
2013-3-22,36.9,26.0,18.0,-99.9,-99.9,-99.9,0,0,100,20.00,20.00,17,4,17,0.00
2013-3-23,42.3,31.2,24.8,-99.9,-99.9,-99.9,0,0,100,20.00,20.00,17,5,20,0.00
2013-3-24,46.2,34.1,28.9,-99.9,-99.9,-99.9,0,0,100,20.00,20.00,8,2,20,0.00
2013-3-25,43.6,34.4,25.5,-99.9,-99.9,-99.9,0,0,100,20.00,20.00,9,1,11,0.00
2013-3-26,53.9,37.2,29.9,-99.9,-99.9,-99.9,0,0,100,20.00,20.00,7,1,8,0.00
2013-3-27,52.9,37.2,25.9,-99.9,-99.9,-99.9,0,0,100,20.00,20.00,13,2,13,0.00
2013-3-28,48.7,38.8,33.1,-99.9,-99.9,-99.9,0,0,100,20.00,20.00,5,1,10,0.00
2013-3-29,52.3,39.6,33.5,-99.9,-99.9,-99.9,0,0,100,20.00,20.00,7,2,9,0.00
2013-3-30,60.4,43.0,29.5,-99.9,-99.9,-99.9,0,0,100,20.00,20.00,17,2,17,0.00
2013-3-31,58.6,41.4,27.8,-99.9,-99.9,-99.9,0,0,100,20.00,19.99,24,6,27,0.00
2013-4-1,47.3,37.5,26.5,-99.9,-99.9,-99.9,0,0,100,20.00,20.00,18,6,27,0.00
2013-4-2,35.2,27.1,22.0,-99.9,-99.9,-99.9,0,0,100,20.00,20.00,28,8,30,0.00
2013-4-3,45.2,30.9,22.0,-99.9,-99.9,-99.9,0,0,100,20.00,20.00,21,7,30,0.00
2013-4-4,53.1,37.7,23.6,-99.9,-99.9,-99.9,0,0,100,20.00,20.00,21,7,24,0.00
2013-4-5,59.6,42.8,31.7,-99.9,-99.9,-99.9,0,0,100,20.00,19.99,15,6,20,0.00
2013-4-6,52.8,35.4,22.6,-99.9,-99.9,-99.9,0,0,100,20.00,20.00,11,3,14,0.00
2013-4-7,62.1,46.6,30.8,-99.9,-99.9,-99.9,0,0,100,20.00,20.00,25,10,29,0.00
2013-4-8,66.7,50.7,40.9,-99.9,-99.9,-99.9,0,0,100,20.00,20.00,13,3,29,0.00
2013-4-9,64.3,55.6,48.8,-99.9,-99.9,-99.9,0,0,100,20.00,20.00,22,6,28,0.00
2013-4-10,57.4,48.3,44.8,-99.9,-99.9,-99.9,0,0,100,20.00,20.00,6,1,15,0.00
2013-4-11,40.2,33.9,31.0,-99.9,-99.9,-99.9,0,0,100,20.00,20.00,5,1,8,0.00
2013-4-12,37.8,34.8,31.3,-99.9,-99.9,-99.9,0,0,100,20.00,19.99,4,0,7,0.00
2013-4-13,49.8,39.7,33.8,-99.9,-99.9,-99.9,0,0,100,20.00,20.00,10,3,10,0.00
2013-4-14,49.3,39.1,32.6,-99.9,-99.9,-99.9,0,0,100,20.00,20.00,15,5,15,0.00
2013-4-15,64.9,45.8,28.0,-99.9,-99.9,-99.9,0,0,100,20.00,19.99,12,3,15,0.00
2013-4-16,58.9,53.2,46.9,-99.9,-99.9,-99.9,0,0,100,20.00,20.00,26,9,26,0.00
2013-4-17,67.3,50.9,39.1,-99.9,-99.9,-99.9,0,0,100,20.00,20.00,11,2,22,0.00
2013-4-18,66.2,50.7,35.7,-99.9,-99.9,-99.9,0,0,100,20.00,20.00,23,7,23,0.00
2013-4-19,74.3,64.2,51.9,-99.9,-99.9,-99.9,0,0,100,20.00,20.00,31,13,31,0.00
2013-4-20,50.8,41.5,31.8,-99.9,-99.9,-99.9,0,0,100,20.01,20.00,20,8,26,0.00
2013-4-21,55.5,38.7,26.6,-99.9,-99.9,-99.9,0,0,100,20.00,20.00,8,2,26,0.00
2013-4-22,62.8,43.2,27.3,-99.9,-99.9,-99.9,0,0,100,20.00,19.99,23,4,23,0.00
2013-4-23,53.7,42.2,29.7,-99.9,-99.9,-99.9,0,0,100,20.00,20.00,14,4,21,0.00
2013-4-24,76.2,55.1,35.3,-99.9,-99.9,-99.9,0,0,100,20.00,20.00,23,5,23,0.00
2013-4-25,62.9,48.2,38.0,-99.9,-99.9,-99.9,0,0,100,20.00,20.00,26,6,26,0.00
2013-4-26,64.1,46.5,33.5,-99.9,-99.9,-99.9,0,0,100,20.00,20.00,12,2,12,0.00
2013-4-27,70.5,49.2,33.3,-99.9,-99.9,-99.9,0,0,100,20.00,20.00,11,2,11,0.00
2013-4-28,76.0,57.2,38.0,-99.9,-99.9,-99.9,0,0,100,20.00,20.00,13,3,13,0.00
2013-4-29,62.7,56.6,52.7,-99.9,-99.9,-99.9,0,0,100,20.00,19.99,16,6,16,0.00
2013-4-30,77.7,60.4,48.8,-99.9,-99.9,-99.9,0,0,100,20.00,20.00,16,2,16,0.00
2013-5-1,83.1,63.4,45.2,-99.9,-99.9,-99.9,0,0,100,20.00,20.00,11,2,11,0.00
2013-5-2,87.0,65.3,47.4,-99.9,-99.9,-99.9,0,0,100,20.00,20.00,30,3,30,0.00
2013-5-3,77.7,60.7,45.6,-99.9,-99.9,-99.9,0,0,100,20.00,20.00,14,3,15,0.00
2013-5-4,83.1,62.2,45.0,-99.9,-99.9,-99.9,0,0,100,20.00,20.00,13,2,13,0.00
2013-5-5,82.9,60.9,42.5,-99.9,-99.9,-99.9,0,0,100,20.00,20.00,11,2,13,0.00
2013-5-6,81.7,61.0,41.7,-99.9,-99.9,-99.9,0,0,100,20.00,20.00,11,3,11,0.00
2013-5-7,87.2,67.1,48.6,-99.9,-99.9,-99.9,0,0,100,20.00,20.00,10,2,10,0.00
2013-5-8,77.4,63.6,53.6,-99.9,-99.9,-99.9,0,0,100,20.00,20.00,16,4,17,0.00
2013-5-9,76.3,60.7,50.1,-99.9,-99.9,-99.9,0,0,100,19.99,19.99,10,2,17,0.00
2013-5-10,80.0,64.2,50.2,-99.9,-99.9,-99.9,0,0,100,20.00,19.99,11,2,11,0.00
2013-5-11,68.5,61.9,54.3,-99.9,-99.9,-99.9,0,0,100,20.00,20.00,18,5,18,0.00
2013-5-12,59.1,51.6,40.5,-99.9,-99.9,-99.9,0,0,100,20.00,19.99,16,4,26,0.00
2013-5-13,51.1,41.6,37.5,-99.9,-99.9,-99.9,0,0,100,20.00,19.99,17,7,26,0.00
2013-5-14,59.9,44.8,31.7,-99.9,-99.9,-99.9,0,0,100,20.00,19.99,9,2,13,0.00
2013-5-15,64.3,50.7,31.3,-99.9,-99.9,-99.9,0,0,100,20.00,20.00,18,4,20,0.00
2013-5-16,78.8,63.2,49.2,-99.9,-99.9,-99.9,0,0,100,20.00,20.00,23,6,23,0.00
2013-5-17,73.2,55.6,41.2,-99.9,-99.9,-99.9,0,0,100,20.00,20.00,10,2,22,0.00
2013-5-18,78.1,58.6,41.3,-99.9,-99.9,-99.9,0,0,100,20.00,20.00,8,2,11,0.00
2013-5-19,62.9,55.8,47.6,-99.9,-99.9,-99.9,0,0,100,20.00,20.00,11,3,11,0.00
2013-5-20,78.0,63.3,54.9,-99.9,-99.9,-99.9,0,0,100,20.00,19.99,9,2,12,0.00
2013-5-21,90.2,71.5,59.4,-99.9,-99.9,-99.9,0,0,100,20.00,20.00,15,2,19,0.00
2013-5-22,81.1,70.4,59.9,-99.9,-99.9,-99.9,0,0,100,20.00,20.00,14,4,14,0.00
2013-5-23,77.0,69.9,64.3,-99.9,-99.9,-99.9,0,0,100,20.00,19.99,14,6,14,0.00
2013-5-24,65.1,50.4,40.8,-99.9,-99.9,-99.9,0,0,100,20.00,20.00,14,3,14,0.00
2013-5-25,43.4,40.7,38.4,-99.9,-99.9,-99.9,0,0,100,20.00,19.99,13,4,14,0.00
2013-5-26,48.9,42.5,37.3,-99.9,-99.9,-99.9,0,0,100,20.00,19.99,8,2,13,0.00
2013-5-27,74.4,53.3,36.4,-99.9,-99.9,-99.9,0,0,100,19.99,19.99,9,2,9,0.00
2013-5-28,73.4,57.3,40.4,-99.9,-99.9,-99.9,0,0,100,20.00,19.99,8,2,8,0.00
2013-5-29,74.9,63.2,54.8,-99.9,-99.9,-99.9,0,0,100,20.00,20.00,9,2,9,0.00
2013-5-30,86.8,73.1,62.5,-99.9,-99.9,-99.9,0,0,100,19.99,19.99,11,3,14,0.00
2013-5-31,90.8,76.5,61.7,-99.9,-99.9,-99.9,0,0,100,20.00,20.00,10,3,14,0.00
2013-6-1,89.3,79.9,71.2,-99.9,-99.9,-99.9,0,0,100,20.00,20.00,14,5,15,0.00
2013-6-2,88.5,74.6,63.9,-99.9,-99.9,-99.9,0,0,100,20.00,20.00,13,4,17,0.00
2013-6-3,69.6,61.4,49.5,-99.9,-99.9,-99.9,0,0,100,20.00,19.99,13,4,14,0.00
2013-6-4,73.8,56.7,43.7,-99.9,-99.9,-99.9,0,0,100,20.00,20.00,16,2,16,0.00
2013-6-5,76.3,59.7,46.0,-99.9,-99.9,-99.9,0,0,100,20.00,20.00,9,1,14,0.00
2013-6-6,76.0,60.9,50.3,-99.9,-99.9,-99.9,0,0,100,20.00,20.00,11,2,15,0.00
2013-6-7,55.7,53.9,51.4,-99.9,-99.9,-99.9,0,0,100,20.00,19.99,7,1,15,0.00
2013-6-8,66.8,57.7,51.3,-99.9,-99.9,-99.9,0,0,100,20.00,19.99,6,1,8,0.00
2013-6-9,80.1,64.9,54.5,-99.9,-99.9,-99.9,0,0,100,20.00,20.00,12,3,12,0.00
2013-6-10,70.5,61.0,51.6,-99.9,-99.9,-99.9,0,0,100,20.00,20.00,8,1,9,0.00
2013-6-11,64.7,59.1,56.2,-99.9,-99.9,-99.9,0,0,100,20.00,19.99,7,2,9,0.00
2013-6-12,71.7,59.2,52.9,-99.9,-99.9,-99.9,0,0,100,19.99,19.99,13,2,13,0.00
2013-6-13,58.1,53.3,47.6,-99.9,-99.9,-99.9,0,0,100,20.00,19.99,5,0,10,0.00
2013-6-14,79.0,61.9,50.1,-99.9,-99.9,-99.9,0,0,100,20.00,20.00,7,1,7,0.00
2013-6-15,74.6,58.5,48.3,-99.9,-99.9,-99.9,0,0,100,20.00,20.00,8,1,15,0.00
2013-6-16,73.2,61.7,52.2,-99.9,-99.9,-99.9,0,0,100,20.00,19.99,16,3,16,0.00
2013-6-17,78.7,64.3,58.0,-99.9,-99.9,-99.9,0,0,100,20.01,20.00,16,3,16,0.00
2013-6-18,61.5,57.1,50.6,-99.9,-99.9,-99.9,0,0,100,20.00,20.00,6,0,6,0.00
2013-6-19,75.1,58.4,46.9,-99.9,-99.9,-99.9,0,0,100,20.00,20.00,10,1,10,0.00
2013-6-20,80.0,61.6,43.7,-99.9,-99.9,-99.9,0,0,100,20.00,20.00,9,2,12,0.00
2013-6-21,86.3,69.1,55.3,-99.9,-99.9,-99.9,0,0,100,20.00,20.00,7,1,12,0.00
2013-6-22,84.4,71.2,57.6,-99.9,-99.9,-99.9,0,0,100,20.00,20.00,10,2,10,0.00
2013-6-23,89.3,76.3,68.4,-99.9,-99.9,-99.9,0,0,100,20.00,19.99,17,4,17,0.00
2013-6-24,88.9,75.8,64.4,-99.9,-99.9,-99.9,0,0,100,20.00,19.99,11,3,14,0.00
2013-6-25,87.6,73.1,62.0,-99.9,-99.9,-99.9,0,0,100,20.00,20.00,10,3,10,0.00
2013-6-26,80.7,70.3,65.5,-99.9,-99.9,-99.9,0,0,100,20.00,19.99,7,2,7,0.00
2013-6-27,88.6,73.1,63.9,-99.9,-99.9,-99.9,0,0,100,20.00,19.99,14,1,14,0.00
2013-6-28,78.6,70.1,64.2,-99.9,-99.9,-99.9,0,0,100,20.01,19.99,22,6,31,0.00
2013-6-29,82.2,70.2,65.0,-99.9,-99.9,-99.9,0,0,100,20.00,20.00,12,3,24,0.00
2013-6-30,83.9,69.3,63.6,-99.9,-99.9,-99.9,0,0,100,20.00,19.99,7,2,24,0.00
2013-7-1,76.8,69.1,64.4,-99.9,-99.9,-99.9,0,0,100,20.00,20.00,7,0,13,0.00
2013-7-2,84.5,69.7,61.7,-99.9,-99.9,-99.9,0,0,100,20.00,19.99,9,1,9,0.00
2013-7-3,86.7,76.5,70.1,-99.9,-99.9,-99.9,0,0,100,20.00,19.99,11,4,12,0.00
2013-7-4,89.8,79.7,72.7,-99.9,-99.9,-99.9,0,0,100,20.00,19.99,15,4,15,0.00
2013-7-5,90.8,79.5,73.4,-99.9,-99.9,-99.9,0,0,100,20.00,19.99,10,3,14,0.00
2013-7-6,84.9,76.6,68.3,-99.9,-99.9,-99.9,0,0,100,20.00,20.00,9,3,13,0.00
2013-7-7,89.7,75.8,65.1,-99.9,-99.9,-99.9,0,0,100,20.00,20.00,7,2,13,0.00
2013-7-8,86.6,75.0,70.1,-99.9,-99.9,-99.9,0,0,100,20.00,20.00,9,2,9,0.00
2013-7-9,88.5,76.5,65.2,-99.9,-99.9,-99.9,0,0,100,20.00,20.00,14,2,14,0.00
2013-7-10,82.8,74.4,70.1,-99.9,-99.9,-99.9,0,0,100,20.00,19.99,11,3,12,0.00
2013-7-11,87.3,73.7,64.4,-99.9,-99.9,-99.9,0,0,100,20.00,19.99,9,2,12,0.00
2013-7-12,86.1,69.8,58.8,-99.9,-99.9,-99.9,0,0,100,20.00,20.00,7,0,10,0.00
2013-7-13,82.1,71.1,61.5,-99.9,-99.9,-99.9,0,0,100,20.00,19.99,7,1,7,0.00
2013-7-14,86.7,76.3,69.0,-99.9,-99.9,-99.9,0,0,100,20.00,20.00,7,0,7,0.00
2013-7-15,93.3,78.7,68.2,-99.9,-99.9,-99.9,0,0,100,20.00,20.00,8,1,8,0.00
2013-7-16,93.8,78.0,65.7,-99.9,-99.9,-99.9,0,0,100,20.00,20.00,5,0,6,0.00
2013-7-17,93.0,79.4,67.0,-99.9,-99.9,-99.9,0,0,100,20.00,20.00,7,2,14,0.00
2013-7-18,93.0,81.6,72.9,-99.9,-99.9,-99.9,0,0,100,20.00,20.00,10,2,14,0.00
2013-7-19,94.3,83.3,75.5,-99.9,-99.9,-99.9,0,0,100,20.00,20.00,17,5,17,0.00
2013-7-20,84.9,74.5,66.3,-99.9,-99.9,-99.9,0,0,100,20.00,19.99,16,4,16,0.00
2013-7-21,84.4,70.1,60.8,-99.9,-99.9,-99.9,0,0,100,20.00,19.99,6,1,7,0.00
2013-7-22,88.1,70.5,57.8,-99.9,-99.9,-99.9,0,0,100,20.00,20.00,8,1,10,0.00
2013-7-23,82.4,70.6,66.1,-99.9,-99.9,-99.9,0,0,100,19.99,19.99,6,1,10,0.00
2013-7-24,77.8,67.0,52.5,-99.9,-99.9,-99.9,0,0,100,20.00,19.99,9,2,9,0.00
2013-7-25,76.3,60.6,45.6,-99.9,-99.9,-99.9,0,0,100,19.99,19.99,5,1,9,0.00
2013-7-26,79.0,63.5,55.8,-99.9,-99.9,-99.9,0,0,100,20.00,20.00,4,1,9,0.00
2013-7-27,76.4,59.4,53.9,-99.9,-99.9,-99.9,0,0,100,20.00,19.99,4,0,6,0.00
2013-7-30,77.7,69.1,64.4,-99.9,-99.9,-99.9,0,0,100,20.00,19.99,5,1,7,0.00
2013-7-31,82.6,67.3,55.0,-99.9,-99.9,-99.9,0,0,100,20.00,19.99,10,2,10,0.00
2013-8-1,77.4,65.9,59.3,-99.9,-99.9,-99.9,0,0,100,20.00,19.99,14,3,19,0.00
2013-8-2,81.2,68.8,62.4,-99.9,-99.9,-99.9,0,0,100,20.00,19.99,12,3,19,0.00
2013-8-3,79.1,66.8,57.9,-99.9,-99.9,-99.9,0,0,100,20.00,19.99,14,3,14,0.00
2013-8-4,75.7,62.8,54.1,-99.9,-99.9,-99.9,0,0,100,20.00,19.99,10,2,10,0.00
2013-8-5,78.3,61.4,49.1,-99.9,-99.9,-99.9,0,0,100,19.99,19.99,11,2,11,0.00
2013-8-6,82.0,63.5,47.9,-99.9,-99.9,-99.9,0,0,100,20.00,20.00,9,1,9,0.00
2013-8-7,80.0,69.9,63.6,-99.9,-99.9,-99.9,0,0,100,20.00,20.00,12,4,14,0.00
2013-8-8,85.8,75.9,68.7,-99.9,-99.9,-99.9,0,0,100,20.00,20.00,11,4,15,0.00
2013-8-9,79.1,73.5,69.8,-99.9,-99.9,-99.9,0,0,100,20.00,20.00,9,2,11,0.00
2013-8-10,81.5,68.5,55.5,-99.9,-99.9,-99.9,0,0,100,19.99,19.99,15,3,15,0.00
2013-8-11,80.0,64.0,50.7,-99.9,-99.9,-99.9,0,0,100,20.00,19.99,9,2,12,0.00
2013-8-12,83.7,67.2,54.0,-99.9,-99.9,-99.9,0,0,100,20.00,19.99,12,2,13,0.00
2013-8-13,74.4,65.8,61.5,-99.9,-99.9,-99.9,0,0,100,20.01,19.99,8,1,13,0.00
2013-8-14,71.4,58.8,52.9,-99.9,-99.9,-99.9,0,0,100,20.00,19.99,15,3,15,0.00
2013-8-15,75.8,60.3,47.4,-99.9,-99.9,-99.9,0,0,100,20.00,20.00,10,3,12,0.00
2013-8-16,79.3,64.4,52.7,-99.9,-99.9,-99.9,0,0,100,19.99,19.99,9,2,11,0.00
2013-8-17,84.8,66.0,51.5,-99.9,-99.9,-99.9,0,0,100,20.00,19.99,6,1,8,0.00
2013-8-18,76.7,64.7,55.4,-99.9,-99.9,-99.9,0,0,100,19.99,19.99,5,1,6,0.00
2013-8-19,83.2,68.2,56.6,-99.9,-99.9,-99.9,0,0,100,19.99,19.99,11,2,11,0.00
2013-8-20,86.4,70.3,56.4,-99.9,-99.9,-99.9,0,0,100,20.00,20.00,9,2,9,0.00
2013-8-21,87.5,72.4,58.9,-99.9,-99.9,-99.9,0,0,100,20.00,20.00,11,2,11,0.00
2013-8-22,86.9,71.9,61.9,-99.9,-99.9,-99.9,0,0,100,20.00,19.99,11,3,11,0.00
2013-8-23,81.0,68.9,55.5,-99.9,-99.9,-99.9,0,0,100,20.00,20.00,9,2,9,0.00
2013-8-24,84.1,63.1,47.7,-99.9,-99.9,-99.9,0,0,100,19.99,19.99,9,1,9,0.00
2013-8-25,82.5,65.3,49.4,-99.9,-99.9,-99.9,0,0,100,20.00,20.00,11,3,12,0.00
2013-8-26,79.7,68.6,63.2,-99.9,-99.9,-99.9,0,0,100,20.00,19.99,10,4,15,0.00
2013-8-27,86.2,71.5,64.6,-99.9,-99.9,-99.9,0,0,100,20.00,20.00,5,0,13,0.00
2013-8-28,90.8,72.8,62.3,-99.9,-99.9,-99.9,0,0,100,20.00,20.00,6,1,6,0.00
2013-8-29,84.8,69.8,61.7,-99.9,-99.9,-99.9,0,0,100,19.99,19.99,6,1,7,0.00
2013-8-30,85.3,72.5,64.4,-99.9,-99.9,-99.9,0,0,100,20.00,19.99,9,3,12,0.00
2013-8-31,79.8,72.6,67.5,-99.9,-99.9,-99.9,0,0,100,20.00,19.99,11,2,12,0.00
2013-9-1,87.4,73.9,68.2,-99.9,-99.9,-99.9,0,0,100,20.00,19.99,5,1,8,0.00
2013-9-2,84.2,74.2,64.9,-99.9,-99.9,-99.9,0,0,100,20.00,20.00,8,2,16,0.00
2013-9-3,75.6,65.4,59.4,-99.9,-99.9,-99.9,0,0,100,20.00,20.00,11,3,13,0.00
2013-9-4,78.3,65.9,57.4,-99.9,-99.9,-99.9,0,0,100,20.00,20.00,14,3,16,0.00
2013-9-5,73.1,60.6,47.0,-99.9,-99.9,-99.9,0,0,100,20.00,19.99,8,2,16,0.00
2013-9-6,71.4,54.7,39.5,-99.9,-99.9,-99.9,0,0,100,20.00,19.99,9,2,9,0.00
2013-9-7,72.2,59.2,47.9,-99.9,-99.9,-99.9,0,0,100,20.00,19.99,12,2,12,0.00
2013-9-8,71.3,60.3,45.2,-99.9,-99.9,-99.9,0,0,100,20.00,20.00,9,2,13,0.00
2013-9-9,71.4,54.5,39.4,-99.9,-99.9,-99.9,0,0,100,20.00,19.99,11,2,13,0.00
2013-9-10,79.9,68.1,58.5,-99.9,-99.9,-99.9,0,0,100,20.00,20.00,14,3,15,0.00
2013-9-11,92.9,80.2,68.0,-99.9,-99.9,-99.9,0,0,100,20.00,20.00,12,4,12,0.00
2013-9-12,83.7,70.4,65.7,-99.9,-99.9,-99.9,0,0,100,20.00,19.99,13,2,13,0.00
2013-9-13,65.8,59.2,51.5,-99.9,-99.9,-99.9,0,0,100,20.00,20.00,8,2,8,0.00
2013-9-14,60.7,53.5,49.0,-99.9,-99.9,-99.9,0,0,100,20.00,19.99,7,1,8,0.00
2013-9-15,67.6,54.1,41.4,-99.9,-99.9,-99.9,0,0,100,20.00,19.99,9,2,9,0.00
2013-9-16,62.2,52.0,39.2,-99.9,-99.9,-99.9,0,0,100,19.99,19.99,7,2,13,0.00
2013-9-17,70.5,49.2,33.7,-99.9,-99.9,-99.9,0,0,100,19.99,19.99,7,1,13,0.00
2013-9-18,74.3,54.6,39.4,-99.9,-99.9,-99.9,0,0,100,20.00,20.00,7,1,7,0.00
2013-9-19,81.3,60.0,43.9,-99.9,-99.9,-99.9,0,0,100,19.99,19.99,6,1,7,0.00
2013-9-20,84.3,64.3,47.5,-99.9,-99.9,-99.9,0,0,100,20.00,20.00,7,2,7,0.00
2013-9-21,75.9,65.6,57.9,-99.9,-99.9,-99.9,0,0,100,20.00,20.00,20,6,20,0.00
2013-9-22,65.6,55.4,46.5,-99.9,-99.9,-99.9,0,0,100,20.00,19.99,15,4,15,0.00
2013-9-23,66.8,49.1,40.1,-99.9,-99.9,-99.9,0,0,100,19.99,19.99,10,1,10,0.00
2013-9-24,73.8,51.0,39.1,-99.9,-99.9,-99.9,0,0,100,20.00,20.00,7,1,7,0.00
2013-9-25,75.9,55.0,40.1,-99.9,-99.9,-99.9,0,0,100,20.00,19.99,5,0,5,0.00
2013-9-26,71.9,54.1,42.9,-99.9,-99.9,-99.9,0,0,100,20.00,19.99,6,1,6,0.00
2013-9-27,58.2,49.9,42.5,-99.9,-99.9,-99.9,0,0,100,20.00,19.99,3,0,5,0.00
2013-9-28,80.0,57.5,40.5,-99.9,-99.9,-99.9,0,0,100,20.00,19.99,6,0,6,0.00
2013-9-29,78.8,60.0,47.0,-99.9,-99.9,-99.9,0,0,100,20.00,20.00,6,0,6,0.00
2013-9-30,79.5,59.1,46.3,-99.9,-99.9,-99.9,0,0,100,20.00,19.99,6,1,6,0.00
2013-10-1,80.1,61.1,45.2,-99.9,-99.9,-99.9,0,0,100,20.00,20.00,8,1,8,0.00
2013-10-2,77.7,64.3,52.7,-99.9,-99.9,-99.9,0,0,100,19.99,19.99,13,3,13,0.00
2013-10-3,76.1,59.3,47.5,-99.9,-99.9,-99.9,0,0,100,19.99,19.99,8,2,10,0.00
2013-10-4,60.3,55.4,49.7,-99.9,-99.9,-99.9,0,0,100,20.00,20.00,3,0,3,0.00
2013-10-5,59.3,55.8,54.0,-99.9,-99.9,-99.9,0,0,100,19.99,19.99,3,0,5,0.00
2013-10-6,60.7,56.3,51.6,-99.9,-99.9,-99.9,0,0,100,20.00,19.99,16,2,16,0.00
2013-10-7,73.7,63.8,53.3,-99.9,-99.9,-99.9,0,0,100,20.00,19.99,41,8,41,0.00
2013-10-8,72.0,53.0,42.2,-99.9,-99.9,-99.9,0,0,100,20.00,20.00,11,2,14,0.00
2013-10-9,71.8,50.3,36.5,-99.9,-99.9,-99.9,0,0,100,20.00,19.99,6,0,6,0.00
2013-10-10,61.8,51.2,39.2,-99.9,-99.9,-99.9,0,0,100,20.00,20.00,6,0,6,0.00
2013-10-11,79.2,56.3,46.9,-99.9,-99.9,-99.9,0,0,100,20.00,20.00,7,0,7,0.00
2013-10-12,74.4,57.2,46.6,-99.9,-99.9,-99.9,0,0,100,19.99,19.99,16,3,16,0.00
2013-10-13,74.6,56.2,45.3,-99.9,-99.9,-99.9,0,0,100,20.00,20.00,9,1,10,0.00
2013-10-14,65.2,55.1,45.3,-99.9,-99.9,-99.9,0,0,100,20.00,19.99,6,1,10,0.00
2013-10-15,69.3,58.6,55.1,-99.9,-99.9,-99.9,0,0,100,20.00,19.99,7,1,11,0.00
2013-10-16,67.0,57.4,49.4,-99.9,-99.9,-99.9,0,0,100,20.00,20.00,11,3,11,0.00
2013-10-17,59.7,58.8,58.1,-99.9,-99.9,-99.9,0,0,100,20.00,20.00,11,4,11,0.00
2013-10-18,65.6,53.7,47.5,-99.9,-99.9,-99.9,0,0,100,19.99,19.99,16,5,19,0.00
2013-10-19,65.5,52.5,42.5,-99.9,-99.9,-99.9,0,0,100,19.99,19.99,18,4,19,0.00
2013-10-20,57.2,48.2,42.2,-99.9,-99.9,-99.9,0,0,100,20.00,19.99,15,5,17,0.00
2013-10-21,66.6,53.3,43.7,-99.9,-99.9,-99.9,0,0,100,20.00,19.99,13,4,13,0.00
2013-10-22,58.8,49.3,39.5,-99.9,-99.9,-99.9,0,0,100,20.00,19.99,22,4,22,0.00
2013-10-23,56.8,42.6,33.7,-99.9,-99.9,-99.9,0,0,100,19.99,19.99,10,2,10,0.00
2013-10-24,45.4,37.8,32.9,-99.9,-99.9,-99.9,0,0,100,20.00,19.99,16,4,16,0.00
2013-10-25,53.3,40.2,35.2,-99.9,-99.9,-99.9,0,0,100,20.00,19.99,12,2,12,0.00
2013-10-26,48.9,42.2,37.6,-99.9,-99.9,-99.9,0,0,100,20.00,20.00,23,8,23,0.00
2013-10-27,50.9,42.9,36.8,-99.9,-99.9,-99.9,0,0,100,20.00,20.00,13,5,20,0.00
2013-10-28,59.5,41.7,30.5,-99.9,-99.9,-99.9,0,0,100,20.00,19.99,15,4,15,0.00
2013-10-29,54.5,35.7,23.3,-99.9,-99.9,-99.9,0,0,100,20.00,20.00,6,1,7,0.00
2013-10-30,55.9,38.5,30.4,-99.9,-99.9,-99.9,0,0,100,20.00,19.99,7,1,7,0.00
2013-10-31,59.3,46.9,33.4,-99.9,-99.9,-99.9,0,0,100,20.00,19.99,22,5,22,0.00
2013-11-1,70.3,60.1,49.9,-99.9,-99.9,-99.9,0,0,100,20.00,19.99,30,11,35,0.00
2013-11-2,60.0,47.9,36.9,-99.9,-99.9,-99.9,0,0,100,20.00,19.99,8,2,11,0.00
2013-11-3,46.6,34.5,24.7,-99.9,-99.9,-99.9,0,0,100,19.99,19.99,14,2,14,0.00
2013-11-4,46.2,30.1,20.6,-99.9,-99.9,-99.9,0,0,100,19.99,19.99,6,1,13,0.00
2013-11-5,55.5,41.2,25.7,-99.9,-99.9,-99.9,0,0,100,20.00,19.99,14,4,14,0.00
2013-11-6,62.7,51.0,43.5,-99.9,-99.9,-99.9,0,0,100,20.00,20.00,22,7,22,0.00
2013-11-7,56.4,47.2,33.1,-99.9,-99.9,-99.9,0,0,100,20.00,19.99,18,5,18,0.00
2013-11-8,46.7,35.0,28.5,-99.9,-99.9,-99.9,0,0,100,20.01,20.00,21,4,21,0.00
2013-11-9,45.6,35.1,25.9,-99.9,-99.9,-99.9,0,0,100,20.01,19.99,18,4,18,0.00
2013-11-10,46.1,41.0,36.5,-99.9,-99.9,-99.9,0,0,100,20.00,19.99,16,7,19,0.00
2013-11-11,46.1,39.0,32.8,-99.9,-99.9,-99.9,0,0,100,20.01,19.99,18,5,19,0.00
2013-11-12,40.0,29.2,23.3,-99.9,-99.9,-99.9,0,0,100,20.01,19.99,15,4,16,0.00
2013-11-13,43.1,27.2,16.3,-99.9,-99.9,-99.9,0,0,100,20.01,20.00,15,3,15,0.00
2013-11-14,51.5,38.8,30.4,-99.9,-99.9,-99.9,0,0,100,20.01,19.99,16,7,16,0.00
2013-11-15,59.5,46.8,41.7,-99.9,-99.9,-99.9,0,0,100,20.01,19.99,16,5,16,0.00
2013-11-16,64.6,49.8,38.9,-99.9,-99.9,-99.9,0,0,100,20.01,20.00,8,2,8,0.00
2013-11-17,59.4,53.0,40.5,-99.9,-99.9,-99.9,0,0,100,20.01,19.99,27,7,27,0.00
2013-11-18,62.0,53.0,38.7,-99.9,-99.9,-99.9,0,0,100,20.01,19.99,37,10,38,0.00
2013-11-19,44.9,33.1,24.6,-99.9,-99.9,-99.9,0,0,100,20.01,19.99,14,5,18,0.00
2013-11-20,47.0,28.2,17.8,-99.9,-99.9,-99.9,0,0,100,20.02,20.00,7,1,10,0.00
2013-11-21,47.5,32.4,17.8,-99.9,-99.9,-99.9,0,0,100,20.01,19.99,9,2,9,0.00
2013-11-22,43.9,40.8,36.9,-99.9,-99.9,-99.9,0,0,100,20.01,19.99,9,2,10,0.00
2013-11-23,42.5,32.1,22.1,-99.9,-99.9,-99.9,0,0,100,20.01,19.99,18,6,18,0.00
2013-11-24,27.2,17.6,11.2,-99.9,-99.9,-99.9,0,0,100,20.01,20.00,17,6,19,0.00
2013-11-25,33.3,20.7,6.8,-99.9,-99.9,-99.9,0,0,100,20.02,19.99,12,4,19,0.00
2013-11-26,34.8,30.3,25.4,-99.9,-99.9,-99.9,0,0,100,20.01,19.99,14,3,18,0.00
2013-11-27,53.7,37.6,30.4,-99.9,-99.9,-99.9,0,0,100,20.00,19.99,30,5,41,0.00
2013-11-28,33.5,24.1,17.6,-99.9,-99.9,-99.9,0,0,100,20.01,20.00,16,4,16,0.00
2013-11-29,38.7,21.8,12.1,-99.9,-99.9,-99.9,0,0,100,20.01,20.00,6,1,8,0.00
2013-11-30,31.8,20.4,7.7,-99.9,-99.9,-99.9,0,0,100,20.01,19.99,16,3,16,0.00
2013-12-1,46.3,34.3,29.9,-99.9,-99.9,-99.9,0,0,100,20.01,20.00,15,2,16,0.00
2013-12-2,38.0,33.8,31.1,-99.9,-99.9,-99.9,0,0,100,20.01,19.99,3,0,3,0.00
2013-12-3,47.8,34.4,28.2,-99.9,-99.9,-99.9,0,0,100,20.01,19.99,5,1,5,0.00
2013-12-4,46.4,32.1,25.0,-99.9,-99.9,-99.9,0,0,100,20.01,19.99,6,0,6,0.00
2013-12-5,55.9,47.4,29.7,-99.9,-99.9,-99.9,0,0,100,20.01,20.00,21,5,21,0.00
2013-12-6,52.9,39.1,30.1,-99.9,-99.9,-99.9,0,0,100,20.01,19.99,8,3,11,0.00
2013-12-7,38.9,29.3,23.1,-99.9,-99.9,-99.9,0,0,100,20.01,19.99,10,2,14,0.00
2013-12-8,35.3,24.9,20.2,-99.9,-99.9,-99.9,0,0,100,20.02,20.00,5,0,14,0.00
2013-12-9,36.0,29.2,23.7,-99.9,-99.9,-99.9,0,0,100,20.01,19.99,17,3,17,0.00
2013-12-10,32.7,27.5,18.9,-99.9,-99.9,-99.9,0,0,100,20.01,19.99,13,6,21,0.00
2013-12-11,31.3,22.6,18.7,-99.9,-99.9,-99.9,0,0,100,20.01,19.99,27,8,27,0.00
2013-12-12,24.6,16.7,9.9,-99.9,-99.9,-99.9,0,0,100,20.01,19.99,13,5,16,0.00
2013-12-13,22.4,15.8,4.3,-99.9,-99.9,-99.9,0,0,100,20.01,20.00,13,4,17,0.00
2013-12-14,18.4,8.2,2.6,-99.9,-99.9,-99.9,0,0,100,20.01,19.99,6,1,11,0.00
2013-12-15,27.7,24.0,17.8,-99.9,-99.9,-99.9,0,0,100,20.01,19.99,27,4,33,0.00
2013-12-16,27.4,17.0,6.8,-99.9,-99.9,-99.9,0,0,100,20.01,20.00,17,5,19,0.00
2013-12-17,15.2,7.8,-1.7,-99.9,-99.9,-99.9,0,0,100,20.02,20.00,4,0,9,0.00
2013-12-18,32.5,21.1,12.8,-99.9,-99.9,-99.9,0,0,100,20.01,20.00,8,2,8,0.00
2013-12-19,43.3,32.7,25.3,-99.9,-99.9,-99.9,0,0,100,20.01,19.99,14,6,17,0.00
2013-12-20,47.5,41.8,33.8,-99.9,-99.9,-99.9,0,0,100,20.01,20.00,13,4,15,0.00
2013-12-21,53.1,45.7,33.9,-99.9,-99.9,-99.9,0,0,100,20.01,20.00,12,3,18,0.00
2013-12-22,61.6,39.8,27.6,-99.9,-99.9,-99.9,0,0,100,20.01,19.99,18,3,21,0.00
2013-12-23,46.4,39.3,30.6,-99.9,-99.9,-99.9,0,0,100,20.01,19.99,11,1,21,0.00
2013-12-24,32.7,23.9,14.9,-99.9,-99.9,-99.9,0,0,100,20.02,20.00,12,2,12,0.00
2013-12-25,25.4,13.1,4.8,-99.9,-99.9,-99.9,0,0,100,20.01,20.00,6,1,6,0.00
2013-12-26,27.8,24.6,15.3,-99.9,-99.9,-99.9,0,0,100,20.01,20.00,13,4,15,0.00
2013-12-27,32.1,25.9,21.7,-99.9,-99.9,-99.9,0,0,100,20.02,19.99,13,5,13,0.00
2013-12-28,38.3,34.2,26.9,-99.9,-99.9,-99.9,0,0,100,20.01,19.99,16,5,19,0.00
2013-12-29,41.7,33.6,29.0,-99.9,-99.9,-99.9,0,0,100,20.00,20.00,7,1,13,0.00
2013-12-30,34.3,24.7,8.7,-99.9,-99.9,-99.9,0,0,100,20.01,19.99,17,5,17,0.00
2013-12-31,18.8,12.9,6.1,-99.9,-99.9,-99.9,0,0,100,20.00,19.99,15,3,15,0.00
2014-1-1,20.6,14.1,7.8,-99.9,-99.9,-99.9,0,0,100,20.01,19.99,14,3,14,0.00
2014-1-2,7.5,-0.1,-7.3,-99.9,-99.9,-99.9,0,0,100,20.01,19.99,4,1,6,0.00